JBU2010 KPIT-KDCA

Flight info

Callsign JBU2010
Flight time N/A
Altitude 26000
Route MGW BUCKO FRDMM6
Aircraft A320/M-SDE3FGHIRWY/LB1

Departure

Time 2026-05-07 01:40
Airport Pittsburgh International Airport (KPIT)

Arrival

Time N/A
Airport Ronald Reagan Washington National Airport (KDCA)
Time Latitude Longitude Altitude Speed Heading
2026-05-07 01:21 40.49720 -80.24682 1156 ft 0 kts 226°
2026-05-07 01:30 40.49722 -80.24679 1155 ft 4 kts 221°
2026-05-07 01:30 40.49738 -80.24658 1155 ft 4 kts 217°
2026-05-07 01:31 40.49761 -80.24641 1155 ft 4 kts 191°
2026-05-07 01:31 40.49782 -80.24643 1153 ft 4 kts 125°
2026-05-07 01:31 40.49787 -80.24655 1154 ft 1 kts 107°
2026-05-07 01:31 40.49787 -80.24656 1154 ft 0 kts 107°
2026-05-07 01:33 40.49787 -80.24655 1154 ft 0 kts 107°
2026-05-07 01:34 40.49785 -80.24647 1153 ft 2 kts 107°
2026-05-07 01:34 40.49783 -80.24639 1153 ft 0 kts 107°
2026-05-07 01:34 40.49783 -80.24635 1154 ft 1 kts 104°
2026-05-07 01:34 40.49780 -80.24616 1155 ft 3 kts 99°
2026-05-07 01:35 40.49778 -80.24584 1155 ft 4 kts 89°
2026-05-07 01:35 40.49788 -80.24538 1155 ft 6 kts 65°
2026-05-07 01:35 40.49817 -80.24489 1155 ft 8 kts 47°
2026-05-07 01:35 40.49857 -80.24432 1155 ft 9 kts 47°
2026-05-07 01:36 40.49901 -80.24369 1155 ft 9 kts 47°
2026-05-07 01:36 40.49941 -80.24336 1155 ft 7 kts 16°
2026-05-07 01:36 40.49977 -80.24292 1155 ft 8 kts 69°
2026-05-07 01:36 40.49981 -80.24212 1155 ft 10 kts 88°
2026-05-07 01:37 40.49980 -80.24117 1155 ft 12 kts 94°
2026-05-07 01:37 40.49978 -80.24003 1155 ft 13 kts 80°
2026-05-07 01:37 40.50040 -80.23906 1154 ft 15 kts 72°
2026-05-07 01:37 40.50038 -80.23759 1153 ft 17 kts 92°
2026-05-07 01:38 40.50034 -80.23593 1153 ft 19 kts 91°
2026-05-07 01:38 40.50030 -80.23421 1153 ft 17 kts 94°
2026-05-07 01:38 40.50028 -80.23281 1154 ft 12 kts 81°
2026-05-07 01:38 40.50070 -80.23287 1153 ft 9 kts 308°
2026-05-07 01:39 40.50112 -80.23382 1150 ft 14 kts 300°
2026-05-07 01:39 40.50141 -80.23518 1150 ft 18 kts 271°
2026-05-07 01:39 40.50153 -80.24015 1153 ft 96 kts 271°
2026-05-07 01:39 40.50181 -80.25214 1149 ft 163 kts 272°
2026-05-07 01:40 40.50210 -80.26288 1336 ft 179 kts 272°
2026-05-07 01:40 40.50254 -80.27843 2282 ft 160 kts 263°
2026-05-07 01:40 40.49915 -80.29085 3092 ft 129 kts 236°
2026-05-07 01:40 40.49010 -80.30261 3374 ft 158 kts 215°
2026-05-07 01:41 40.48368 -80.30756 3647 ft 158 kts 205°
2026-05-07 01:41 40.47240 -80.31095 4105 ft 179 kts 179°
2026-05-07 01:41 40.45927 -80.30713 4497 ft 209 kts 158°
2026-05-07 01:41 40.44510 -80.29964 4872 ft 230 kts 159°
2026-05-07 01:42 40.42958 -80.29172 5148 ft 254 kts 159°
2026-05-07 01:42 40.41244 -80.28309 5657 ft 270 kts 159°
2026-05-07 01:42 40.39468 -80.27419 6431 ft 275 kts 160°
2026-05-07 01:42 40.37665 -80.26520 7241 ft 279 kts 160°
2026-05-07 01:43 40.35839 -80.25611 8033 ft 282 kts 160°
2026-05-07 01:43 40.33979 -80.24684 8816 ft 286 kts 160°
2026-05-07 01:43 40.32111 -80.23754 9576 ft 289 kts 160°
2026-05-07 01:43 40.30244 -80.22819 10301 ft 292 kts 159°
2026-05-07 01:44 40.28336 -80.21865 11021 ft 295 kts 160°
2026-05-07 01:44 40.26401 -80.20900 11719 ft 299 kts 160°
2026-05-07 01:44 40.24448 -80.19926 12401 ft 302 kts 160°
2026-05-07 01:44 40.22478 -80.18946 13073 ft 305 kts 160°
2026-05-07 01:45 40.20484 -80.17956 13724 ft 308 kts 160°
2026-05-07 01:45 40.18472 -80.16956 14365 ft 311 kts 160°
2026-05-07 01:45 40.16436 -80.15947 14985 ft 314 kts 160°
2026-05-07 01:45 40.14385 -80.14930 15597 ft 317 kts 160°
2026-05-07 01:46 40.12313 -80.13901 16186 ft 320 kts 160°
2026-05-07 01:46 40.10222 -80.12864 16778 ft 323 kts 160°
2026-05-07 01:46 40.08112 -80.11822 17348 ft 325 kts 160°
2026-05-07 01:46 40.05986 -80.10770 17904 ft 328 kts 160°
2026-05-07 01:47 40.03850 -80.09710 18466 ft 331 kts 160°
2026-05-07 01:47 40.01679 -80.08632 19014 ft 334 kts 159°
2026-05-07 01:47 39.99499 -80.07551 19553 ft 337 kts 160°
2026-05-07 01:47 39.97297 -80.06461 20077 ft 339 kts 160°
2026-05-07 01:48 39.95105 -80.05378 20592 ft 342 kts 160°
2026-05-07 01:48 39.92872 -80.04279 21074 ft 345 kts 160°
2026-05-07 01:48 39.90618 -80.03169 21544 ft 348 kts 160°
2026-05-07 01:48 39.88349 -80.02051 22004 ft 350 kts 160°
2026-05-07 01:49 39.86064 -80.00926 22457 ft 353 kts 160°
2026-05-07 01:49 39.83751 -79.99788 22905 ft 355 kts 160°
2026-05-07 01:49 39.81429 -79.98649 23344 ft 358 kts 160°
2026-05-07 01:49 39.79095 -79.97505 23784 ft 360 kts 160°
2026-05-07 01:50 39.76740 -79.96350 24214 ft 362 kts 160°
2026-05-07 01:50 39.74372 -79.95189 24638 ft 365 kts 160°
2026-05-07 01:50 39.71989 -79.94021 25051 ft 367 kts 160°
2026-05-07 01:50 39.69589 -79.92846 25460 ft 370 kts 160°
2026-05-07 01:51 39.67204 -79.91678 25852 ft 372 kts 160°
2026-05-07 01:51 39.64744 -79.90473 26252 ft 374 kts 160°
2026-05-07 01:51 39.62330 -79.89292 26635 ft 377 kts 160°
2026-05-07 01:51 39.60664 -79.88479 26886 ft 379 kts 160°
2026-05-07 01:52 39.60235 -79.88270 26918 ft 379 kts 160°